Time,TemperatureF,DewpointF,PressureIn,WindDirection,WindDirectionDegrees,WindSpeedMPH,WindSpeedGustMPH,Humidity,HourlyPrecipIn,Conditions,Clouds,dailyrainin,SoftwareType,DateUTC
2013-03-30 00:00:00,43.8,31.2,30.21,NNE,32,0.0,1.0,61,0.00,,,0.00,Wunderground v.1.15,2013-03-30 04:00:00,
2013-03-30 00:05:00,43.9,30.9,30.21,NNE,32,1.0,1.0,60,0.00,,,0.00,Wunderground v.1.15,2013-03-30 04:05:00,
2013-03-30 00:10:00,44.2,30.3,30.21,NNE,32,0.0,0.0,58,0.00,,,0.00,Wunderground v.1.15,2013-03-30 04:10:00,
2013-03-30 00:15:00,44.5,30.2,30.21,NNE,32,0.0,1.0,57,0.00,,,0.00,Wunderground v.1.15,2013-03-30 04:15:00,
2013-03-30 00:20:00,44.8,30.0,30.21,NNE,32,0.0,0.0,56,0.00,,,0.00,Wunderground v.1.15,2013-03-30 04:20:00,
2013-03-30 00:30:00,45.1,30.3,30.21,NNE,32,0.0,0.0,56,0.00,,,0.00,Wunderground v.1.15,2013-03-30 04:30:00,
2013-03-30 00:40:00,45.2,30.0,30.21,NNE,32,0.0,0.0,55,0.00,,,0.00,Wunderground v.1.15,2013-03-30 04:40:00,
2013-03-30 00:50:00,45.2,30.4,30.20,NNE,32,0.0,0.0,56,0.00,,,0.00,Wunderground v.1.15,2013-03-30 04:50:00,
2013-03-30 01:00:00,45.7,30.9,30.20,NNE,32,0.0,0.0,56,0.00,,,0.00,Wunderground v.1.15,2013-03-30 05:00:00,
2013-03-30 01:05:00,45.8,31.4,30.20,NNE,32,0.0,0.0,57,0.00,,,0.00,Wunderground v.1.15,2013-03-30 05:05:00,
2013-03-30 01:10:00,46.0,31.6,30.20,NNE,32,0.0,0.0,57,0.00,,,0.00,Wunderground v.1.15,2013-03-30 05:10:00,
2013-03-30 01:20:00,46.1,32.1,30.20,NNE,32,0.0,0.0,58,0.00,,,0.00,Wunderground v.1.15,2013-03-30 05:20:00,
2013-03-30 01:30:00,45.8,32.3,30.20,NNE,32,0.0,0.0,59,0.00,,,0.00,Wunderground v.1.15,2013-03-30 05:30:00,
2013-03-30 01:40:00,45.5,32.4,30.21,NNE,32,0.0,0.0,60,0.00,,,0.00,Wunderground v.1.15,2013-03-30 05:40:00,
2013-03-30 01:45:00,45.1,32.8,30.21,NNE,32,0.0,0.0,62,0.00,,,0.00,Wunderground v.1.15,2013-03-30 05:45:00,
2013-03-30 01:55:00,44.5,33.1,30.21,NNE,32,0.0,0.0,64,0.00,,,0.00,Wunderground v.1.15,2013-03-30 05:55:00,
2013-03-30 02:00:00,43.8,32.8,30.21,NNE,32,0.0,0.0,65,0.00,,,0.00,Wunderground v.1.15,2013-03-30 06:00:00,
2013-03-30 02:10:00,42.5,32.3,30.21,NNE,32,0.0,0.0,67,0.00,,,0.00,Wunderground v.1.15,2013-03-30 06:10:00,
2013-03-30 02:20:00,41.8,32.0,30.21,NNE,32,0.0,0.0,68,0.00,,,0.00,Wunderground v.1.15,2013-03-30 06:20:00,
2013-03-30 02:30:00,41.2,31.8,30.21,NNE,32,0.0,0.0,69,0.00,,,0.00,Wunderground v.1.15,2013-03-30 06:30:00,
2013-03-30 02:35:00,40.8,32.1,30.21,NNE,32,0.0,0.0,71,0.00,,,0.00,Wunderground v.1.15,2013-03-30 06:35:00,
2013-03-30 02:40:00,40.1,31.8,30.21,NNE,32,0.0,0.0,72,0.00,,,0.00,Wunderground v.1.15,2013-03-30 06:40:00,
2013-03-30 02:50:00,39.5,31.6,30.21,NNE,32,0.0,0.0,73,0.00,,,0.00,Wunderground v.1.15,2013-03-30 06:50:00,
2013-03-30 03:00:00,38.9,31.3,30.21,NNE,32,0.0,0.0,74,0.00,,,0.00,Wunderground v.1.15,2013-03-30 07:00:00,
2013-03-30 03:05:00,38.5,31.6,30.21,NNE,32,0.0,0.0,76,0.00,,,0.00,Wunderground v.1.15,2013-03-30 07:05:00,
2013-03-30 03:15:00,37.9,31.3,30.21,NNE,32,0.0,0.0,77,0.00,,,0.00,Wunderground v.1.15,2013-03-30 07:15:00,
2013-03-30 03:20:00,37.6,31.0,30.20,NNE,32,0.0,0.0,77,0.00,,,0.00,Wunderground v.1.15,2013-03-30 07:20:00,
2013-03-30 03:30:00,37.2,31.0,30.20,NNE,32,0.0,0.0,78,0.00,,,0.00,Wunderground v.1.15,2013-03-30 07:30:00,
2013-03-30 03:40:00,36.5,30.6,30.20,NNE,32,0.0,0.0,79,0.00,,,0.00,Wunderground v.1.15,2013-03-30 07:40:00,
2013-03-30 03:45:00,36.2,30.6,30.20,NNE,32,0.0,0.0,80,0.00,,,0.00,Wunderground v.1.15,2013-03-30 07:45:00,
2013-03-30 03:55:00,35.9,30.6,30.20,NNE,32,0.0,0.0,81,0.00,,,0.00,Wunderground v.1.15,2013-03-30 07:55:00,
2013-03-30 04:00:00,35.8,30.5,30.20,NNE,32,0.0,0.0,81,0.00,,,0.00,Wunderground v.1.15,2013-03-30 08:00:00,
2013-03-30 04:10:00,35.5,30.5,30.20,NNE,32,0.0,0.0,82,0.00,,,0.00,Wunderground v.1.15,2013-03-30 08:10:00,
2013-03-30 04:20:00,35.0,30.1,30.20,NNE,32,0.0,0.0,82,0.00,,,0.00,Wunderground v.1.15,2013-03-30 08:20:00,
2013-03-30 04:30:00,34.7,30.1,30.20,NNE,32,0.0,0.0,83,0.00,,,0.00,Wunderground v.1.15,2013-03-30 08:30:00,
2013-03-30 04:35:00,34.4,30.1,30.20,NNE,32,0.0,0.0,84,0.00,,,0.00,Wunderground v.1.15,2013-03-30 08:35:00,
2013-03-30 04:45:00,34.1,29.8,30.20,NNE,32,0.0,0.0,84,0.00,,,0.00,Wunderground v.1.15,2013-03-30 08:45:00,
2013-03-30 04:55:00,33.8,29.8,30.20,NNE,32,0.0,0.0,85,0.00,,,0.00,Wunderground v.1.15,2013-03-30 08:55:00,
2013-03-30 05:00:00,33.7,29.7,30.20,NNE,32,0.0,0.0,85,0.00,,,0.00,Wunderground v.1.15,2013-03-30 09:00:00,
2013-03-30 05:10:00,33.5,29.8,30.20,NNE,32,0.0,0.0,86,0.00,,,0.00,Wunderground v.1.15,2013-03-30 09:10:00,
2013-03-30 05:20:00,33.1,29.4,30.20,NNE,32,0.0,0.0,86,0.00,,,0.00,Wunderground v.1.15,2013-03-30 09:20:00,
2013-03-30 05:25:00,32.9,29.2,30.20,NNE,32,0.0,0.0,86,0.00,,,0.00,Wunderground v.1.15,2013-03-30 09:25:00,
2013-03-30 05:35:00,32.7,29.3,30.20,NNE,32,0.0,0.0,87,0.00,,,0.00,Wunderground v.1.15,2013-03-30 09:35:00,
2013-03-30 05:40:00,32.7,29.3,30.20,NNE,32,0.0,0.0,87,0.00,,,0.00,Wunderground v.1.15,2013-03-30 09:40:00,
2013-03-30 05:50:00,32.5,29.3,30.20,NNE,32,0.0,0.0,88,0.00,,,0.00,Wunderground v.1.15,2013-03-30 09:50:00,
2013-03-30 05:55:00,32.5,29.3,30.20,NNE,32,0.0,0.0,88,0.00,,,0.00,Wunderground v.1.15,2013-03-30 09:55:00,
2013-03-30 06:05:00,32.5,29.3,30.20,NNE,32,0.0,1.0,88,0.00,,,0.00,Wunderground v.1.15,2013-03-30 10:05:00,
2013-03-30 06:15:00,32.4,29.2,30.20,NNE,32,0.0,2.0,88,0.00,,,0.00,Wunderground v.1.15,2013-03-30 10:15:00,
2013-03-30 06:20:00,32.4,29.5,30.20,NNE,32,0.0,0.0,89,0.00,,,0.00,Wunderground v.1.15,2013-03-30 10:20:00,
2013-03-30 06:30:00,31.9,29.0,30.20,NNE,32,0.0,0.0,89,0.00,,,0.00,Wunderground v.1.15,2013-03-30 10:30:00,
2013-03-30 06:40:00,31.6,28.7,30.20,NNE,32,0.0,0.0,89,0.00,,,0.00,Wunderground v.1.15,2013-03-30 10:40:00,
2013-03-30 06:49:00,31.3,28.7,30.21,NNE,32,0.0,0.0,90,0.00,,,0.00,Wunderground v.1.15,2013-03-30 10:49:00,
2013-03-30 06:55:00,31.2,28.6,30.21,NNE,32,0.0,0.0,90,0.00,,,0.00,Wunderground v.1.15,2013-03-30 10:55:00,
2013-03-30 07:00:00,31.2,28.6,30.21,NNE,32,0.0,0.0,90,0.00,,,0.00,Wunderground v.1.15,2013-03-30 11:00:00,
2013-03-30 07:10:00,30.7,28.1,30.22,NNE,32,0.0,0.0,90,0.00,,,0.00,Wunderground v.1.15,2013-03-30 11:10:00,
2013-03-30 07:20:00,31.2,28.9,30.22,NNE,32,0.0,0.0,91,0.00,,,0.00,Wunderground v.1.15,2013-03-30 11:20:00,
2013-03-30 07:30:00,31.3,29.0,30.22,NNE,32,0.0,0.0,91,0.00,,,0.00,Wunderground v.1.15,2013-03-30 11:30:00,
2013-03-30 07:35:00,31.3,29.2,30.23,NNE,32,0.0,0.0,92,0.00,,,0.00,Wunderground v.1.15,2013-03-30 11:35:00,
2013-03-30 07:45:00,31.0,28.7,30.23,NNE,32,0.0,0.0,91,0.00,,,0.00,Wunderground v.1.15,2013-03-30 11:45:00,
2013-03-30 07:50:00,30.9,28.6,30.24,NNE,32,0.0,0.0,91,0.00,,,0.00,Wunderground v.1.15,2013-03-30 11:50:00,
2013-03-30 08:00:00,31.2,29.1,30.24,NNE,32,0.0,0.0,92,0.00,,,0.00,Wunderground v.1.15,2013-03-30 12:00:00,
2013-03-30 08:10:00,31.8,29.7,30.24,NNE,32,0.0,0.0,92,0.00,,,0.00,Wunderground v.1.15,2013-03-30 12:10:00,
2013-03-30 08:15:00,32.2,30.1,30.24,NNE,32,0.0,0.0,92,0.00,,,0.00,Wunderground v.1.15,2013-03-30 12:15:00,
2013-03-30 08:25:00,33.1,31.3,30.25,NNE,32,0.0,0.0,93,0.00,,,0.00,Wunderground v.1.15,2013-03-30 12:25:00,
2013-03-30 08:35:00,34.3,32.5,30.25,NNE,32,0.0,0.0,93,0.00,,,0.00,Wunderground v.1.15,2013-03-30 12:35:00,
2013-03-30 08:40:00,34.7,32.9,30.25,NNE,32,0.0,0.0,93,0.00,,,0.00,Wunderground v.1.15,2013-03-30 12:40:00,
2013-03-30 08:50:00,36.0,34.2,30.25,NNE,32,0.0,0.0,93,0.00,,,0.00,Wunderground v.1.15,2013-03-30 12:50:00,
2013-03-30 08:55:00,37.0,34.9,30.25,NNE,32,0.0,0.0,92,0.00,,,0.00,Wunderground v.1.15,2013-03-30 12:55:00,
2013-03-30 09:05:00,39.1,35.0,30.25,NNE,32,0.0,0.0,85,0.00,,,0.00,Wunderground v.1.15,2013-03-30 13:05:00,
2013-03-30 09:10:00,39.8,35.1,30.25,NNE,32,0.0,1.0,83,0.00,,,0.00,Wunderground v.1.15,2013-03-30 13:10:00,
2013-03-30 09:20:00,41.2,36.1,30.25,NNE,32,0.0,0.0,82,0.00,,,0.00,Wunderground v.1.15,2013-03-30 13:20:00,
2013-03-30 09:25:00,42.2,36.5,30.25,NNE,32,0.0,0.0,80,0.00,,,0.00,Wunderground v.1.15,2013-03-30 13:25:00,
2013-03-30 09:35:00,44.2,36.8,30.25,NNE,32,0.0,0.0,75,0.00,,,0.00,Wunderground v.1.15,2013-03-30 13:35:00,
2013-03-30 09:40:00,44.8,36.3,30.25,NNE,32,0.0,0.0,72,0.00,,,0.00,Wunderground v.1.15,2013-03-30 13:40:00,
2013-03-30 09:50:00,45.7,36.8,30.24,NNE,32,0.0,0.0,71,0.00,,,0.00,Wunderground v.1.15,2013-03-30 13:50:00,
2013-03-30 09:55:00,46.4,36.4,30.24,NNE,32,0.0,0.0,68,0.00,,,0.00,Wunderground v.1.15,2013-03-30 13:55:00,
2013-03-30 10:05:00,46.7,36.3,30.23,NNE,32,0.0,1.0,67,0.00,,,0.00,Wunderground v.1.15,2013-03-30 14:05:00,
2013-03-30 10:10:00,46.8,36.4,30.23,NE,55,1.0,1.0,67,0.00,,,0.00,Wunderground v.1.15,2013-03-30 14:10:00,
2013-03-30 10:20:00,46.7,35.9,30.21,ENE,65,2.0,3.0,66,0.00,,,0.00,Wunderground v.1.15,2013-03-30 14:20:00,
2013-03-30 10:30:00,47.4,35.0,30.21,East,79,2.0,2.0,62,0.00,,,0.00,Wunderground v.1.15,2013-03-30 14:30:00,
2013-03-30 10:40:00,47.9,35.1,30.20,ESE,123,2.0,3.0,61,0.00,,,0.00,Wunderground v.1.15,2013-03-30 14:40:00,
2013-03-30 10:45:00,48.2,35.4,30.20,SSE,167,2.0,3.0,61,0.00,,,0.00,Wunderground v.1.15,2013-03-30 14:45:00,
2013-03-30 10:55:00,49.2,35.0,30.20,SSE,154,2.0,6.0,58,0.00,,,0.00,Wunderground v.1.15,2013-03-30 14:55:00,
2013-03-30 11:00:00,49.6,35.0,30.20,SE,141,2.0,2.0,57,0.00,,,0.00,Wunderground v.1.15,2013-03-30 15:00:00,
2013-03-30 11:10:00,51.1,34.5,30.20,NE,38,1.0,2.0,53,0.00,,,0.00,Wunderground v.1.15,2013-03-30 15:10:00,
2013-03-30 11:20:00,52.3,35.2,30.20,SE,140,2.0,2.0,52,0.00,,,0.00,Wunderground v.1.15,2013-03-30 15:20:00,
2013-03-30 11:25:00,52.3,35.2,30.20,SE,137,2.0,3.0,52,0.00,,,0.00,Wunderground v.1.15,2013-03-30 15:25:00,
2013-03-30 11:35:00,52.6,32.9,30.20,SSE,150,2.0,2.0,47,0.00,,,0.00,Wunderground v.1.15,2013-03-30 15:35:00,
2013-03-30 11:40:00,53.1,32.8,30.20,SSW,210,2.0,2.0,46,0.00,,,0.00,Wunderground v.1.15,2013-03-30 15:40:00,
2013-03-30 11:50:00,55.1,34.1,30.21,WNW,285,1.0,1.0,45,0.00,,,0.00,Wunderground v.1.15,2013-03-30 15:50:00,
2013-03-30 12:00:00,55.0,32.3,30.21,NE,38,2.0,5.0,42,0.00,,,0.00,Wunderground v.1.15,2013-03-30 16:00:00,
2013-03-30 12:10:00,54.5,33.0,30.18,ESE,107,4.0,4.0,44,0.00,,,0.00,Wunderground v.1.15,2013-03-30 16:10:00,
2013-03-30 12:20:00,54.2,32.2,30.17,SE,133,3.0,3.0,43,0.00,,,0.00,Wunderground v.1.15,2013-03-30 16:20:00,
2013-03-30 12:30:00,55.0,31.1,30.17,SW,217,2.0,5.0,40,0.00,,,0.00,Wunderground v.1.15,2013-03-30 16:30:00,
2013-03-30 12:35:00,55.3,31.4,30.17,SW,233,2.0,5.0,40,0.00,,,0.00,Wunderground v.1.15,2013-03-30 16:35:00,
2013-03-30 12:40:00,55.3,30.1,30.17,NE,35,2.0,3.0,38,0.00,,,0.00,Wunderground v.1.15,2013-03-30 16:40:00,
2013-03-30 12:50:00,55.1,27.9,30.17,NNE,32,2.0,2.0,35,0.00,,,0.00,Wunderground v.1.15,2013-03-30 16:50:00,
2013-03-30 13:00:00,56.5,31.8,30.17,WNW,294,1.0,1.0,39,0.00,,,0.00,Wunderground v.1.15,2013-03-30 17:00:00,
2013-03-30 13:10:00,56.7,30.7,30.16,NE,45,2.0,6.0,37,0.00,,,0.00,Wunderground v.1.15,2013-03-30 17:10:00,
2013-03-30 13:20:00,56.5,29.8,30.15,East,82,4.0,4.0,36,0.00,,,0.00,Wunderground v.1.15,2013-03-30 17:20:00,
2013-03-30 13:30:00,57.6,30.8,30.15,South,176,1.0,5.0,36,0.00,,,0.00,Wunderground v.1.15,2013-03-30 17:30:00,
2013-03-30 13:35:00,57.8,30.3,30.14,NNE,24,1.0,5.0,35,0.00,,,0.00,Wunderground v.1.15,2013-03-30 17:35:00,
2013-03-30 13:40:00,58.0,32.5,30.14,NNE,28,1.0,2.0,38,0.00,,,0.00,Wunderground v.1.15,2013-03-30 17:40:00,
2013-03-30 13:50:00,57.5,30.0,30.13,ENE,64,2.0,2.0,35,0.00,,,0.00,Wunderground v.1.15,2013-03-30 17:50:00,
2013-03-30 13:55:00,56.9,30.2,30.13,North,359,2.0,3.0,36,0.00,,,0.00,Wunderground v.1.15,2013-03-30 17:55:00,
2013-03-30 14:05:00,58.0,31.8,30.12,NNE,20,2.0,2.0,37,0.00,,,0.00,Wunderground v.1.15,2013-03-30 18:05:00,
2013-03-30 14:10:00,57.6,30.1,30.12,NNE,24,2.0,4.0,35,0.00,,,0.00,Wunderground v.1.15,2013-03-30 18:10:00,
2013-03-30 14:20:00,58.6,29.6,30.11,ESE,114,1.0,2.0,33,0.00,,,0.00,Wunderground v.1.15,2013-03-30 18:20:00,
2013-03-30 14:30:00,58.9,31.3,30.11,NE,51,2.0,5.0,35,0.00,,,0.00,Wunderground v.1.15,2013-03-30 18:30:00,
2013-03-30 14:39:00,58.4,30.8,30.11,North,8,3.0,7.0,35,0.00,,,0.00,Wunderground v.1.15,2013-03-30 18:39:00,
2013-03-30 14:45:00,58.4,32.2,30.11,North,8,4.0,7.0,37,0.00,,,0.00,Wunderground v.1.15,2013-03-30 18:45:00,
2013-03-30 14:55:00,59.2,32.9,30.10,NNW,333,2.0,3.0,37,0.00,,,0.00,Wunderground v.1.15,2013-03-30 18:55:00,
2013-03-30 15:05:00,59.9,30.7,30.09,NW,305,2.0,2.0,33,0.00,,,0.00,Wunderground v.1.15,2013-03-30 19:05:00,
2013-03-30 15:10:00,59.8,29.1,30.09,NW,306,2.0,2.0,31,0.00,,,0.00,Wunderground v.1.15,2013-03-30 19:10:00,
2013-03-30 15:20:00,59.5,29.6,30.09,North,357,1.0,1.0,32,0.00,,,0.00,Wunderground v.1.15,2013-03-30 19:20:00,
2013-03-30 15:30:00,59.2,30.1,30.09,NNE,27,1.0,4.0,33,0.00,,,0.00,Wunderground v.1.15,2013-03-30 19:30:00,
2013-03-30 15:39:00,59.9,28.4,30.08,SSW,200,1.0,2.0,30,0.00,,,0.00,Wunderground v.1.15,2013-03-30 19:39:00,
2013-03-30 15:45:00,60.2,32.4,30.08,ENE,66,1.0,3.0,35,0.00,,,0.00,Wunderground v.1.15,2013-03-30 19:45:00,
2013-03-30 15:50:00,59.9,29.9,30.07,NE,42,2.0,4.0,32,0.00,,,0.00,Wunderground v.1.15,2013-03-30 19:50:00,
2013-03-30 16:00:00,61.2,31.1,30.07,North,7,1.0,1.0,32,0.00,,,0.00,Wunderground v.1.15,2013-03-30 20:00:00,
2013-03-30 16:10:00,61.6,29.8,30.06,NNE,28,1.0,6.0,30,0.00,,,0.00,Wunderground v.1.15,2013-03-30 20:10:00,
2013-03-30 16:20:00,60.4,31.1,30.06,East,83,2.0,2.0,33,0.00,,,0.00,Wunderground v.1.15,2013-03-30 20:20:00,
2013-03-30 16:30:00,60.5,29.7,30.06,East,80,1.0,3.0,31,0.00,,,0.00,Wunderground v.1.15,2013-03-30 20:30:00,
2013-03-30 16:35:00,60.2,29.4,30.05,ESE,113,2.0,3.0,31,0.00,,,0.00,Wunderground v.1.15,2013-03-30 20:35:00,
2013-03-30 16:40:00,60.5,29.7,30.05,ESE,110,1.0,1.0,31,0.00,,,0.00,Wunderground v.1.15,2013-03-30 20:40:00,
2013-03-30 16:50:00,61.8,30.0,30.05,WNW,284,2.0,2.0,30,0.00,,,0.00,Wunderground v.1.15,2013-03-30 20:50:00,
2013-03-30 17:00:00,62.6,30.7,30.05,NW,313,1.0,1.0,30,0.00,,,0.00,Wunderground v.1.15,2013-03-30 21:00:00,
2013-03-30 17:10:00,61.8,29.2,30.03,NE,55,1.0,1.0,29,0.00,,,0.00,Wunderground v.1.15,2013-03-30 21:10:00,
2013-03-30 17:20:00,61.3,29.6,30.03,SE,124,1.0,1.0,30,0.00,,,0.00,Wunderground v.1.15,2013-03-30 21:20:00,
2013-03-30 17:25:00,61.8,30.0,30.03,WSW,241,2.0,2.0,30,0.00,,,0.00,Wunderground v.1.15,2013-03-30 21:25:00,
2013-03-30 17:30:00,62.1,29.4,30.03,West,260,2.0,2.0,29,0.00,,,0.00,Wunderground v.1.15,2013-03-30 21:30:00,
2013-03-30 17:40:00,62.4,28.8,30.03,WSW,244,1.0,1.0,28,0.00,,,0.00,Wunderground v.1.15,2013-03-30 21:40:00,
2013-03-30 17:45:00,62.7,29.1,30.03,SSW,198,1.0,4.0,28,0.00,,,0.00,Wunderground v.1.15,2013-03-30 21:45:00,
2013-03-30 17:50:00,62.7,30.0,30.03,SSW,198,0.0,0.0,29,0.00,,,0.00,Wunderground v.1.15,2013-03-30 21:50:00,
2013-03-30 17:55:00,62.4,28.8,30.03,SW,227,1.0,6.0,28,0.00,,,0.00,Wunderground v.1.15,2013-03-30 21:55:00,
2013-03-30 18:00:00,62.7,29.1,30.03,West,274,2.0,2.0,28,0.00,,,0.00,Wunderground v.1.15,2013-03-30 22:00:00,
2013-03-30 18:10:00,62.3,29.6,30.03,West,267,1.0,2.0,29,0.00,,,0.00,Wunderground v.1.15,2013-03-30 22:10:00,
2013-03-30 18:20:00,61.8,29.2,30.03,WNW,292,0.0,0.0,29,0.00,,,0.00,Wunderground v.1.15,2013-03-30 22:20:00,
2013-03-30 18:30:00,62.0,29.3,30.03,SW,215,1.0,2.0,29,0.00,,,0.00,Wunderground v.1.15,2013-03-30 22:30:00,
2013-03-30 18:35:00,61.8,29.2,30.03,SW,219,2.0,2.0,29,0.00,,,0.00,Wunderground v.1.15,2013-03-30 22:35:00,
2013-03-30 18:40:00,61.6,29.0,30.03,SW,219,1.0,3.0,29,0.00,,,0.00,Wunderground v.1.15,2013-03-30 22:40:00,
2013-03-30 18:50:00,60.9,29.2,30.03,South,175,2.0,2.0,30,0.00,,,0.00,Wunderground v.1.15,2013-03-30 22:50:00,
2013-03-30 18:55:00,60.7,29.9,30.03,South,175,2.0,2.0,31,0.00,,,0.00,Wunderground v.1.15,2013-03-30 22:55:00,
2013-03-30 19:05:00,60.5,28.9,30.02,South,175,0.0,1.0,30,0.00,,,0.00,Wunderground v.1.15,2013-03-30 23:05:00,
2013-03-30 19:10:00,60.4,28.8,30.02,South,175,0.0,0.0,30,0.00,,,0.00,Wunderground v.1.15,2013-03-30 23:10:00,
2013-03-30 19:20:00,60.2,28.6,30.02,South,175,0.0,0.0,30,0.00,,,0.00,Wunderground v.1.15,2013-03-30 23:20:00,
2013-03-30 19:30:00,59.8,28.3,30.02,South,175,0.0,0.0,30,0.00,,,0.00,Wunderground v.1.15,2013-03-30 23:30:00,
2013-03-30 19:40:00,59.3,28.6,30.02,South,175,0.0,0.0,31,0.00,,,0.00,Wunderground v.1.15,2013-03-30 23:40:00,
2013-03-30 19:45:00,59.2,28.5,30.02,South,175,0.0,0.0,31,0.00,,,0.00,Wunderground v.1.15,2013-03-30 23:45:00,
2013-03-30 19:50:00,58.9,28.3,30.01,South,175,0.0,0.0,31,0.00,,,0.00,Wunderground v.1.15,2013-03-30 23:50:00,
2013-03-30 20:00:00,58.3,29.3,30.01,South,175,0.0,0.0,33,0.00,,,0.00,Wunderground v.1.15,2013-03-31 00:00:00,
2013-03-30 20:10:00,57.5,30.7,30.01,South,175,0.0,0.0,36,0.00,,,0.00,Wunderground v.1.15,2013-03-31 00:10:00,
2013-03-30 20:20:00,56.5,31.8,30.00,South,175,0.0,0.0,39,0.00,,,0.00,Wunderground v.1.15,2013-03-31 00:20:00,
2013-03-30 20:25:00,55.9,32.5,30.00,South,175,0.0,0.0,41,0.00,,,0.00,Wunderground v.1.15,2013-03-31 00:25:00,
2013-03-30 20:35:00,55.1,31.8,30.00,South,175,0.0,0.0,41,0.00,,,0.00,Wunderground v.1.15,2013-03-31 00:35:00,
2013-03-30 20:40:00,54.7,33.2,30.00,South,175,0.0,0.0,44,0.00,,,0.00,Wunderground v.1.15,2013-03-31 00:40:00,
2013-03-30 20:50:00,54.1,33.8,29.99,South,175,0.0,0.0,46,0.00,,,0.00,Wunderground v.1.15,2013-03-31 00:50:00,
2013-03-30 21:00:00,53.3,33.6,29.99,South,175,0.0,0.0,47,0.00,,,0.00,Wunderground v.1.15,2013-03-31 01:00:00,
2013-03-30 21:10:00,52.6,33.5,29.99,South,175,0.0,0.0,48,0.00,,,0.00,Wunderground v.1.15,2013-03-31 01:10:00,
2013-03-30 21:20:00,52.0,33.4,29.99,South,175,0.0,0.0,49,0.00,,,0.00,Wunderground v.1.15,2013-03-31 01:20:00,
2013-03-30 21:30:00,51.6,33.6,29.99,South,175,0.0,0.0,50,0.00,,,0.00,Wunderground v.1.15,2013-03-31 01:30:00,
2013-03-30 21:40:00,51.1,34.1,29.98,South,175,0.0,0.0,52,0.00,,,0.00,Wunderground v.1.15,2013-03-31 01:40:00,
2013-03-30 21:45:00,50.8,33.8,29.98,South,175,0.0,0.0,52,0.00,,,0.00,Wunderground v.1.15,2013-03-31 01:45:00,
2013-03-30 21:50:00,50.7,33.7,29.98,South,175,0.0,0.0,52,0.00,,,0.00,Wunderground v.1.15,2013-03-31 01:50:00,
2013-03-30 22:00:00,50.2,34.2,29.98,South,175,0.0,0.0,54,0.00,,,0.00,Wunderground v.1.15,2013-03-31 02:00:00,
2013-03-30 22:10:00,49.8,35.2,29.97,South,175,0.0,0.0,57,0.00,,,0.00,Wunderground v.1.15,2013-03-31 02:10:00,
2013-03-30 22:20:00,49.4,34.3,29.97,South,175,0.0,0.0,56,0.00,,,0.00,Wunderground v.1.15,2013-03-31 02:20:00,
2013-03-30 22:25:00,49.2,33.7,29.97,South,175,0.0,0.0,55,0.00,,,0.00,Wunderground v.1.15,2013-03-31 02:25:00,
2013-03-30 22:30:00,49.1,34.1,29.97,South,175,0.0,0.0,56,0.00,,,0.00,Wunderground v.1.15,2013-03-31 02:30:00,
2013-03-30 22:40:00,48.8,33.8,29.97,South,175,0.0,0.0,56,0.00,,,0.00,Wunderground v.1.15,2013-03-31 02:40:00,
2013-03-30 22:50:00,48.3,33.8,29.97,South,175,0.0,0.0,57,0.00,,,0.00,Wunderground v.1.15,2013-03-31 02:50:00,
2013-03-30 23:00:00,48.0,33.9,29.97,South,175,0.0,0.0,58,0.00,,,0.00,Wunderground v.1.15,2013-03-31 03:00:00,
2013-03-30 23:10:00,47.7,34.1,29.96,South,175,0.0,0.0,59,0.00,,,0.00,Wunderground v.1.15,2013-03-31 03:10:00,
2013-03-30 23:15:00,47.6,34.0,29.96,South,175,0.0,0.0,59,0.00,,,0.00,Wunderground v.1.15,2013-03-31 03:15:00,
2013-03-30 23:25:00,47.4,33.8,29.95,South,175,0.0,0.0,59,0.00,,,0.00,Wunderground v.1.15,2013-03-31 03:25:00,
2013-03-30 23:35:00,47.3,34.5,29.95,South,175,0.0,0.0,61,0.00,,,0.00,Wunderground v.1.15,2013-03-31 03:35:00,
2013-03-30 23:40:00,47.1,34.7,29.95,South,175,0.0,0.0,62,0.00,,,0.00,Wunderground v.1.15,2013-03-31 03:40:00,
2013-03-30 23:50:00,47.0,34.6,29.95,South,175,0.0,0.0,62,0.00,,,0.00,Wunderground v.1.15,2013-03-31 03:50:00,